Total_Precipitation_Accumulation
1.68 1.85 1.88 1.96 1.87 1.97 1.89 1.72 1.46 1.34 1.26 1.10 1.08 1.09 1.02 0.97 1.01 1.09 1.27 1.33 1.27 1.42 1.69 1.83 1.69 1.56 1.52 1.48 1.43 1.34 1.27 1.18 1.09 0.96 0.83 0.75 0.69 0.67 0.67 0.68 0.66 0.63 0.59
1.97 2.07 2.13 2.18 2.05 2.05 2.08 1.98 1.71 1.58 1.51 1.38 1.23 1.14 1.09 1.18 1.20 1.15 1.33 1.42 1.34 1.31 1.53 1.86 1.99 2.04 2.06 2.06 1.88 1.65 1.53 1.43 1.36 1.25 1.11 0.97 0.87 0.81 0.77 0.77 0.77 0.73 0.68
2.31 2.29 2.46 2.50 2.33 2.26 2.24 2.16 2.04 1.83 1.76 1.71 1.63 1.47 1.35 1.35 1.48 1.52 1.54 1.66 1.68 1.56 1.59 1.79 1.99 2.12 2.21 2.32 2.19 1.99 1.81 1.71 1.66 1.56 1.44 1.27 1.11 0.99 0.93 0.89 0.87 0.83 0.75
2.69 2.79 2.72 2.58 2.48 2.42 2.42 2.49 2.34 2.11 2.04 2.11 2.02 1.77 1.53 1.52 1.62 1.67 1.65 1.74 1.87 1.78 1.77 1.68 1.76 1.91 2.08 2.27 2.29 2.30 2.21 2.12 2.00 1.88 1.77 1.64 1.45 1.28 1.18 1.11 1.04 0.96 0.87
3.01 3.10 3.11 2.92 2.71 2.61 2.62 2.47 2.48 2.39 2.38 2.35 2.05 1.83 1.58 1.52 1.59 1.60 1.63 1.71 1.88 1.95 1.95 1.77 1.79 1.97 2.10 2.26 2.41 2.52 2.58 2.56 2.40 2.29 2.14 2.04 1.92 1.69 1.48 1.33 1.21 1.14 1.08
3.45 3.46 3.35 3.17 3.01 2.88 2.82 2.73 2.69 2.68 2.52 2.36 1.98 1.79 1.60 1.46 1.47 1.53 1.56 1.62 1.66 1.71 1.77 1.78 1.83 1.78 1.88 2.05 2.27 2.49 2.65 2.75 2.64 2.43 2.29 2.24 2.17 2.02 1.86 1.70 1.54 1.44 1.35
3.85 3.81 3.71 3.55 3.37 3.15 2.99 2.85 2.73 2.63 2.44 2.27 2.09 1.91 1.64 1.40 1.41 1.44 1.40 1.45 1.52 1.52 1.56 1.60 1.75 1.74 1.66 1.81 1.89 2.17 2.43 2.67 2.78 2.70 2.60 2.55 2.49 2.33 2.16 1.99 1.85 1.73 1.62
4.33 4.20 4.10 3.89 3.65 3.42 3.18 2.97 2.75 2.54 2.35 2.19 2.13 2.17 1.94 1.69 1.36 1.17 1.17 1.19 1.23 1.23 1.28 1.34 1.37 1.42 1.42 1.50 1.56 1.72 1.96 2.15 2.36 2.48 2.53 2.52 2.50 2.42 2.32 2.20 2.08 2.01 1.99
4.40 4.08 3.86 3.79 3.58 3.25 3.03 2.87 2.67 2.48 2.26 2.10 2.00 2.11 2.07 1.88 1.57 1.36 1.15 1.05 1.05 1.11 1.14 1.21 1.24 1.19 1.16 1.17 1.25 1.41 1.51 1.58 1.82 2.04 2.19 2.22 2.18 2.14 2.14 2.18 2.18 2.13 2.09
4.10 3.80 3.53 3.26 3.03 2.77 2.55 2.40 2.31 2.25 2.16 2.01 1.93 1.75 1.58 1.48 1.52 1.42 1.25 1.13 1.07 1.08 1.04 0.99 1.01 1.04 1.02 1.03 1.13 1.25 1.32 1.41 1.59 1.71 1.83 1.88 1.88 1.88 1.86 1.83 1.86 1.89 1.96
3.35 3.06 2.79 2.52 2.29 2.11 1.95 1.78 1.73 1.85 1.94 1.93 1.91 1.84 1.69 1.53 1.44 1.38 1.31 1.25 1.17 1.13 1.07 1.01 0.95 0.93 0.90 0.89 0.93 1.10 1.21 1.24 1.31 1.37 1.46 1.52 1.53 1.60 1.66 1.65 1.64 1.70 1.82
2.60 2.34 2.09 1.89 1.70 1.54 1.44 1.37 1.36 1.41 1.53 1.61 1.66 1.68 1.68 1.70 1.67 1.58 1.47 1.41 1.35 1.26 1.16 1.10 1.05 1.02 0.98 0.95 1.00 1.20 1.13 1.14 1.17 1.15 1.14 1.19 1.22 1.26 1.37 1.48 1.55 1.65 1.80
1.84 1.64 1.46 1.33 1.18 1.11 1.08 1.05 1.07 1.15 1.19 1.24 1.33 1.43 1.47 1.48 1.51 1.59 1.64 1.55 1.40 1.23 1.11 1.06 1.03 1.01 0.98 0.97 0.98 1.05 0.95 0.96 0.98 0.98 0.97 1.00 1.05 1.08 1.12 1.18 1.26 1.35 1.46
1.10 0.98 0.90 0.84 0.80 0.80 0.77 0.77 0.81 0.88 0.93 0.96 0.99 1.10 1.22 1.22 1.18 1.25 1.38 1.38 1.36 1.25 1.07 1.00 0.94 0.91 0.87 0.81 0.88 0.89 0.81 0.89 0.86 0.83 0.80 0.77 0.77 0.80 0.84 0.88 0.94 0.99 1.04
0.76 0.68 0.63 0.62 0.59 0.60 0.60 0.59 0.58 0.59 0.66 0.76 0.79 0.83 0.91 0.94 0.90 0.90 0.96 1.04 1.14 1.18 1.06 0.87 0.81 0.79 0.75 0.72 0.79 0.66 0.70 0.80 0.75 0.72 0.69 0.66 0.65 0.66 0.67 0.68 0.67 0.70 0.75
0.54 0.49 0.43 0.40 0.37 0.37 0.41 0.46 0.47 0.44 0.47 0.52 0.55 0.57 0.62 0.66 0.67 0.69 0.75 0.83 0.92 1.02 1.03 0.80 0.68 0.66 0.62 0.56 0.64 0.57 0.60 0.63 0.56 0.54 0.51 0.49 0.48 0.49 0.50 0.52 0.54 0.54 0.56
0.35 0.33 0.30 0.28 0.27 0.27 0.30 0.35 0.38 0.38 0.41 0.42 0.42 0.43 0.46 0.49 0.55 0.53 0.56 0.62 0.68 0.78 0.87 0.75 0.61 0.56 0.55 0.54 0.55 0.53 0.49 0.44 0.41 0.41 0.39 0.39 0.38 0.37 0.38 0.39 0.41 0.43 0.44
0.26 0.25 0.24 0.24 0.22 0.23 0.28 0.32 0.32 0.32 0.37 0.40 0.39 0.38 0.40 0.43 0.47 0.45 0.47 0.50 0.55 0.63 0.73 0.75 0.63 0.53 0.49 0.48 0.47 0.45 0.35 0.32 0.33 0.36 0.32 0.31 0.32 0.33 0.33 0.33 0.32 0.31 0.30
0.23 0.20 0.19 0.20 0.20 0.20 0.23 0.25 0.26 0.30 0.33 0.36 0.33 0.32 0.35 0.36 0.39 0.38 0.40 0.42 0.45 0.50 0.59 0.63 0.54 0.45 0.40 0.36 0.41 0.41 0.36 0.41 0.27 0.23 0.22 0.21 0.22 0.22 0.22 0.21 0.21 0.20 0.18
0.21 0.19 0.18 0.19 0.19 0.17 0.17 0.18 0.19 0.23 0.28 0.28 0.26 0.27 0.30 0.29 0.31 0.34 0.35 0.39 0.44 0.49 0.53 0.55 0.48 0.39 0.36 0.33 0.43 0.52 0.48 0.40 0.31 0.18 0.19 0.16 0.16 0.15 0.17 0.21 0.17 0.16 0.16
0.24 0.23 0.21 0.20 0.18 0.15 0.12 0.13 0.16 0.17 0.23 0.24 0.23 0.23 0.23 0.23 0.25 0.28 0.30 0.36 0.44 0.53 0.55 0.59 0.53 0.46 0.42 0.48 0.55 0.53 0.50 0.39 0.31 0.23 0.27 0.25 0.29 0.43 0.63 0.68 0.47 0.26 0.19
0.24 0.23 0.23 0.21 0.18 0.15 0.15 0.16 0.15 0.19 0.21 0.24 0.25 0.23 0.20 0.18 0.18 0.20 0.23 0.28 0.39 0.51 0.61 0.68 0.63 0.60 0.56 0.61 0.66 0.63 0.64 0.60 0.52 0.33 0.35 0.34 0.42 0.80 1.18 1.38 0.97 0.44 0.30
0.25 0.22 0.18 0.19 0.21 0.17 0.15 0.16 0.15 0.18 0.22 0.28 0.31 0.29 0.23 0.19 0.25 0.28 0.24 0.21 0.27 0.35 0.53 0.72 0.79 0.72 0.68 0.74 0.83 0.80 0.76 0.75 0.68 0.48 0.52 0.55 0.60 0.92 1.01 1.12 1.07 0.68 0.53
0.26 0.25 0.21 0.20 0.22 0.18 0.16 0.17 0.17 0.22 0.25 0.26 0.28 0.28 0.33 0.33 0.27 0.26 0.24 0.28 0.36 0.46 0.53 0.60 0.73 0.70 0.63 0.67 0.79 0.82 0.75 0.69 0.65 0.58 0.63 0.74 0.70 0.85 0.84 1.10 1.29 1.13 0.95
0.26 0.25 0.22 0.22 0.25 0.25 0.21 0.22 0.25 0.30 0.29 0.26 0.23 0.22 0.25 0.29 0.24 0.23 0.30 0.40 0.48 0.53 0.46 0.55 0.62 0.68 0.72 0.70 0.66 0.69 0.81 0.85 0.84 0.68 0.62 0.72 0.79 0.84 0.95 1.27 1.34 1.33 1.24
0.26 0.24 0.23 0.24 0.26 0.27 0.19 0.19 0.22 0.27 0.30 0.26 0.26 0.28 0.24 0.21 0.22 0.24 0.32 0.45 0.56 0.57 0.62 0.79 0.95 1.01 0.95 0.87 0.72 0.74 0.91 0.98 0.99 0.91 0.69 0.71 0.82 0.93 1.21 1.39 1.36 1.25 1.23